Regional Weather Roundup
Issued by NWS

Home | Current Version | Previous Version | Graphics & Text | Print | Product List | Glossary On
Versions: 1 2 3 4 5 6 7 8 9 10 11 12 13 14 15 16 17 18 19 20 21 22 23 24 25 26 27 28 29 30 31 32 33 34 35 36 37 38 39 40 41 42 43 44 45 46 47 48 49 50
000
ASUS43 KLOT 211300
RWRIL

ILLINOIS REGIONAL WEATHER ROUNDUP
NATIONAL WEATHER SERVICE CHICAGO/ROMEOVILLE IL
800 AM CDT TUE APR 21 2015

NOTE: "FAIR" INDICATES FEW OR NO CLOUDS BELOW 12,000 FEET WITH NO
SIGNIFICANT WEATHER AND/OR OBSTRUCTIONS TO VISIBILITY.

* THESE STATIONS ARE NOT UNDER NWS QUALITY CONTROL. THEY ALSO MAY NOT
  REPORT WEATHER SUCH AS PRECIPITATION OR FOG.

ILZ001-002-007-009-015-016-024-211400-
NORTHWEST ILLINOIS

CITY           SKY/WX    TMP DP  RH WIND       PRES   REMARKS
MOLINE         SUNNY     43  28  55 W16G26    29.70R
$$

ILZ003-004-008-010-011-017-018-211400-
NORTH CENTRAL ILLINOIS

CITY           SKY/WX    TMP DP  RH WIND       PRES   REMARKS
ROCKFORD       NOT AVBL
$$

ILZ005-006-012>014-019>023-211400-
NORTHEAST ILLINOIS

CITY           SKY/WX    TMP DP  RH WIND       PRES   REMARKS
CHICAGO-OHARE  MOSUNNY   41  29  62 W20G28    29.60R
CHICAGO-MIDWAY NOT AVBL
AURORA         SUNNY     42  31  64 SW17      29.64R
WAUKEGAN       NOT AVBL
DUPAGE AIRPORT MOSUNNY   42  30  62 W16G25    29.61R
WHEELING         N/A     41  29  62 W18G28    29.60R
NORTHERLY ISL    N/A     43  29  58 SW15        N/A
$$

LMZ740>746-211400-
SOUTHERN LAKE MICHIGAN

STATION/POSITION SKY/WX   TEMP    WIND        PRES    VSBY  WAVE
                          AIR SEA DIR/SP/G                  HT/PER
                          (F)     (DEG/KT/KT) (MB)    (MI)  (FT/S)
HARRISON CRIB              42     250/ 20/ 30   N/A
BURNHAM HARBOR             43     200/ 10/ 19   N/A
CALUMET HARBOR             42     220/ 10/ 15   N/A
MICHIGAN CITY              43     220/ 26/ 32   N/A
MICHIGAN CITY 6N           43 46  270/ 21/ 25   N/A           5/ 5
$$

ILZ025>027-034>036-040-047-049-050-058-095>099-211400-
WEST-CENTRAL ILLINOIS

CITY           SKY/WX    TMP DP  RH WIND       PRES   REMARKS
$$

ILZ028>032-037-038-041>044-048-051>054-059>061-211400-
CENTRAL ILLINOIS

CITY           SKY/WX    TMP DP  RH WIND       PRES   REMARKS
PEORIA         NOT AVBL
SPRINGFIELD    SUNNY     47  33  58 W15       29.79R
TAYLORVILLE    NOT AVBL
$$

ILZ033-039-045-046-055>057-062-063-211400-
EAST-CENTRAL ILLINOIS

CITY           SKY/WX    TMP DP  RH WIND       PRES   REMARKS
CHAMPAIGN      SUNNY     43  35  73 SW17      29.75R
$$

ILZ079-100>102-211400-
SOUTHWEST ILLINOIS

CITY           SKY/WX    TMP DP  RH WIND       PRES   REMARKS
ALTON          MOSUNNY   48  28  46 W9        29.85R
CAHOKIA*       CLOUDY    49  34  56 SW5       29.85R
$$

ILZ064>066-069>071-074>076-080>082-084>086-088>090-092>094-211400-
SOUTH-CENTRAL ILLINOIS

CITY           SKY/WX    TMP DP  RH WIND       PRES   REMARKS
CARBONDALE     SUNNY     50  34  54 SW12      29.90R
MARION         SUNNY     52  36  54 SW12      29.91R
$$

ILZ067-068-072-073-078-083-087-091-211400-
SOUTHEAST ILLINOIS

CITY           SKY/WX    TMP DP  RH WIND       PRES   REMARKS
$$

ABBREVIATIONS USED IN REMARKS
   TC - TEMPERATURE IN CELSIUS
  WCI - WIND CHILL INDEX
   HX - HEAT INDEX
  VSB - VISIBILITY
$$



USA.gov is the U.S. government's official web portal to all federal, state and local government web resources and services.